Regional Weather Roundup
Issued by NWS Upton, NY

Current Version | Previous Version | Text Only | Print | Product List | Glossary On
Versions: 1 2 3 4 5 6 7 8 9 10 11 12 13 14 15 16 17 18 19 20 21 22 23 24 25 26 27 28 29 30 31 32 33 34 35 36 37 38 39 40 41 42 43 44 45 46 47 48 49 50
000 ASUS41 KOKX 282308 RWROKX REGIONAL WEATHER ROUNDUP NATIONAL WEATHER SERVICE NEW YORK NY 700 PM EDT WED SEP 28 2016 NOTE: "FAIR" INDICATES FEW OR NO CLOUDS BELOW 12,000 FEET WITH NO SIGNIFICANT WEATHER AND/OR OBSTRUCTIONS TO VISIBILITY. NYZ071-072-176-178-NJZ106-104-290000- NEW YORK CITY METRO AREA CITY SKY/WX TMP DP RH WIND PRES REMARKS Central Park CLOUDY 62 53 72 E10G20 30.21R LaGuardia APRT CLOUDY 64 56 75 NE22G29 30.18R Kennedy INTL CLOUDY 63 55 75 NE21 30.18R Newark/Liberty CLOUDY 64 54 69 NE12G23 30.17R Bronx Bot Gard N/A 61 52 72 NE7 30.21R Wall St Helipt CLOUDY 66 57 72 NE16G26 30.17R Teterboro CLOUDY 63 52 67 E10 30.17R $$ NYZ177-179-078>081-290000- LONG ISLAND NEW YORK CITY SKY/WX TMP DP RH WIND PRES REMARKS Farmingdale CLOUDY 60 57 89 NE13 30.18R FOG MacArthur/ISP DRIZZLE 59 57 93 NE14 30.19R Shirley CLOUDY 59 55 87 VRB5 30.20R Riverhead NOT AVBL Westhampton CLOUDY 59 54 83 NE13G28 30.20R Southampton N/A 59 55 88 NE10 30.16R Bridgehampton N/A 57 55 94 E5 30.05R East Hampton CLOUDY 58 54 87 NE13G23 30.19R Montauk N/A 59 55 87 NE12G23 30.20S $$ NYZ052-065-067-290000- HUDSON VALLEY CITY SKY/WX TMP DP RH WIND PRES REMARKS White Plains MOCLDY 60 52 74 NE10G22 30.20R Newburgh CLOUDY 61 54 77 E17G23 30.22R Montgomery CLOUDY 61 51 70 E9 30.21R Poughkeepsie CLOUDY 60 50 69 NE10 30.21R Albany PTCLDY 61 48 62 E6 30.24R $$ NJZ001-105-106-008-010-013-015-019>022-104-290000- NEW JERSEY CITY SKY/WX TMP DP RH WIND PRES REMARKS Newark/Liberty CLOUDY 64 54 69 NE12G23 30.17R Teterboro CLOUDY 63 52 67 E10 30.17R Caldwell CLOUDY 63 53 70 NE10 30.18R Morristown CLOUDY 63 55 77 E16 30.18R Somerville CLOUDY 65 54 67 VRB6 30.15R Linden NOT AVBL Sussex CLOUDY 62 53 72 NE10 30.18R Abdover N/A 61 54 77 VRB3 30.18R Trenton CLOUDY 64 56 75 E10 30.14R Millville LGT RAIN 65 65 100 E14 30.09R FOG Atlantic City LGT RAIN 65 63 93 NE16G23 30.10R FOG Wrightstown CLOUDY 63 61 94 NE12 30.11S Toms River LGT RAIN 63 62 97 NE12 30.14R FOG Belmar LGT RAIN 62 60 93 NE14 30.16R FOG $$ PAZ047>061-062-071-290000- EASTERN PENNSYLVANIA CITY SKY/WX TMP DP RH WIND PRES REMARKS Philadelphia CLOUDY 65 60 84 E16G26 30.11R Allentown CLOUDY 66 56 70 E15 30.14R Scranton CLOUDY 62 56 80 NE7 30.14R $$ CTZ002-004>006-009-010-012-RIZ004-006-007-MAZ004-011-015-290000- SOUTHERN NEW ENGLAND IN CT CITY SKY/WX TMP DP RH WIND PRES REMARKS Bradley INTL CLOUDY 57 48 72 NE15 30.26R Hartford CLOUDY 58 50 75 NE15 30.25R Danbury CLOUDY 57 50 77 NE12 30.23R Wtrbury/Oxford CLOUDY 55 48 76 E13G23 30.23R Bridgeport CLOUDY 61 51 70 NE15 30.21R Meriden CLOUDY 59 50 72 VRB5G18 30.23R New Haven CLOUDY 59 51 75 NE13 30.21R Chester CLOUDY 55 52 88 NE13G20 30.22R Groton CLOUDY 59 52 77 NE14G26 30.21R Wilimantic CLOUDY 58 51 78 NE13G21 30.25S IN RI CITY SKY/WX TMP DP RH WIND PRES REMARKS Providence CLOUDY 56 52 86 N18 30.24F Block Island CLOUDY 59 56 89 NE18G28 30.20S Westerly CLOUDY 58 51 78 NE10G22 30.22R IN MA CITY SKY/WX TMP DP RH WIND PRES REMARKS Boston DRIZZLE 57 53 86 NE21G26 30.27F Worcester CLOUDY 51 47 86 NE12 30.27R Westfield CLOUDY 56 48 74 NE9 30.28R Provincetown LGT RAIN 59 58 96 NE21 30.24S FOG Nantucket CLOUDY 60 58 92 NE22G31 30.18R FOG $$ ANZ330-335-338-340-345-350-353-355-290000- COASTAL MARINE OBSERVATIONS STATION/POSITION TIME SKY/WX TEMP WIND PRES VSBY WAVE AIR SEA DIR/SP/G HT/PER (UTC) (F) (DEG/KT/KT) (MB) (MI) (FT/S) NY HARB ENTRANCE 2150 65 71 50/ 21/ 25 1019.5 7/ 7 20S FIRE ISLAND 2150 64 69 60/ 27/ 31 1018.8 9/ 7 GREAT SOUTH BAY 2230 63 69 50/ 16/ 21 N/A 23 SSW MONTAUK P 2150 62 67 40/ 27/ 31 1020.8 9/ 7 15 E BARNEGAT LI 2200 70 N/A 9/ 7 HUDSON CANYON 2150 67 68 1017.8 7/ 7 KINGS POINT 2230 62 72 1021.6 EXECUTION ROCKS 2245 63 50/ 17/ 23 N/A CENTRAL LI SOUND NOT AVBL EASTERN LI SOUND NOT AVBL ROBBINS REEF 2230 64 60/ 18/ 22 1021.4 $$ >>>>>>>>>>>>>>>>>>>>>>>>>>>> KEY <<<<<<<<<<<<<<<<<<<<<<<<<<< > < > SKY/WX - Sky Condition/Present Weather < > TMP - Temperature in Fahrenheit < > DP - Dew Point in Fahrenheit < > RH - Relative Humidity in Percent < > WIND - Direction (from) and Speed in MPH < > PRES - Mean Sea Level Pressure (inches of Hg) < > WCI - Wind Chill Index < > VSB - VISIBILITY IN MILES < > HX - HEAT INDEX < > TC - TEMPERATURE IN CELSIUS < > VRB - VARIABLE WIND DIRECTION < > < >>>>>>>>>>>>>>>>>>>>>>>>>>>> KEY <<<<<<<<<<<<<<<<<<<<<<<<<<<

USA.gov is the U.S. government's official web portal to all federal, state and local government web resources and services.